STARLINK-1894 (46744 NORAD) Tracking and Keplerian Element Data

This shows tracking and keplerian element data for the satellite.

Feedback or suggestion? Click here.




ElementValue
Catalog46744
NameSTARLINK-1894
Epoch Orbit560
Epoch Day331.16668981
Epoch Year2020
RAAN0.7616
Inclination53.055
Eccentricity0.000113
Argument of Perigee75.1075
Mean Anonmoly140.5898
Mean Motion15.62771298
Decay Rate0.00013298
L11 46744U 20074F 20331.16668981 .00013298 00000-0 15072-3 0 9993
L22 46744 53.0550 0.7616 0001130 75.1075 140.5898 15.62771298 5609

Live tracking and technical data element details for STARLINK-1894 (NORAD 46744). STARLINK-1894 can be tracked NOW for your location showing map with azimuth and elevation plus other details from your city location.

Track the satellite on the map from your city or location and see movement details for azimuth, elevation, latitude, longitude, range, height, and movement on the map or in text.







IsCatalogInMostPopularTable: catalog: 46744, numindb: 5
Update: records affected: 1



GetName: 46744 STARLINK-1894

Hit Count: updated at: Thu, 26 Nov 2020 17:51:33 GMT